[Iaude] MPEC C89: 2024 CO1 [a=1.90,e=0.70,i=37.6,H=20.1]

mpec at cfa.harvard.edu mpec at cfa.harvard.edu
Thu Feb 8 16:04:26 EST 2024


M.P.E.C. 2024-C89                              Issued 2024 February 8, 21:02 UT

     The Minor Planet Electronic Circulars contain information on unusual
         minor planets, routine data on comets and natural satellites,
         and occasional editorial announcements.  They are published
    on behalf of Division F of the International Astronomical Union by the
          Minor Planet Center, Smithsonian Astrophysical Observatory,
                          Cambridge, MA 02138, U.S.A.
			  
             Prepared using the Tamkin Foundation Computer Network

                              MPC at CFA.HARVARD.EDU
            URL https://www.minorplanetcenter.net/    ISSN 1523-6714

                                    2024 CO1                                    


Observations:
     K24C01O* C2024 02 05.79473403 36 04.925-61 54 43.02         19.13oVEC089M22
     K24C01O  C2024 02 05.79808903 36 12.007-61 54 02.95         18.77oVEC089M22
     K24C01O  C2024 02 05.80368003 36 23.678-61 52 59.30         19.24oVEC089M22
     K24C01O  C2024 02 05.82016403 36 58.416-61 49 48.25         19.07oVEC089M22
     K24C01O  C2024 02 05.86831703 38 39.876-61 40 22.58         19.14oVEC089M22
     K24C01O  C2024 02 05.86876803 38 40.721-61 40 17.51         18.77oVEC089M22
     K24C01O  C2024 02 05.86921803 38 41.772-61 40 11.35         19.18oVEC089M22
     K24C01O  C2024 02 05.86966803 38 42.557-61 40 07.43         18.72oVEC089M22
     K24C01O  C2024 02 05.87011903 38 43.709-61 40 01.45         19.13oVEC089M22
     K24C01O  C2024 02 06.06985103 45 48.80 -61 00 15.2                WEC089X09
     K24C01O  C2024 02 06.07606903 46 01.65 -60 58 58.4                WEC089X09
     K24C01O  C2024 02 07.05589604 18 59.64 -57 04 51.6                WEC089X09
     K24C01O  C2024 02 07.05942204 19 06.27 -57 03 53.9                WEC089X09
     K24C01O  C2024 02 07.80890 04 42 05.06 -53 21 14.0                VEC089M28
     K24C01O  C2024 02 07.81093 04 42 08.44 -53 20 35.7                VEC089M28
     K24C01O  C2024 02 07.81297 04 42 11.92 -53 19 56.2                VEC089M28
     K24C01O KC2024 02 08.44524804 59 54.425-49 42 52.67         17.9 GVEC089474
     K24C01O KC2024 02 08.44768604 59 58.330-49 41 59.10         18.6 GVEC089474
     K24C01O KC2024 02 08.44899705 00 00.338-49 41 30.12         18.9 GVEC089474
     K24C01O KC2024 02 08.45030905 00 02.424-49 41 01.39         18.1 GVEC089474
     K24C01O KC2024 02 08.47804 05 00 47.37 -49 31 11.5          18.2 VqEC089E23
     K24C01O KC2024 02 08.48360 05 00 56.18 -49 29 09.3          18.3 VqEC089E23
     K24C01O KC2024 02 08.48915 05 01 04.94 -49 27 07.4          18.5 VqEC089E23
     K24C01O 0B2024 02 08.77521905 08 36.531-47 40 21.76         18.3 VZEC089M49
     K24C01O 0B2024 02 08.77610905 08 37.805-47 40 00.86         18.8 VZEC089M49
     K24C01O  C2024 02 08.77675 05 08 38.27 -47 39 34.9          18.0 GVEC089M28
     K24C01O 0B2024 02 08.77698305 08 39.166-47 39 41.09         18.2 VZEC089M49
     K24C01O  C2024 02 08.77878 05 08 41.27 -47 38 48.7          18.0 GVEC089M28
     K24C01O  C2024 02 08.78082 05 08 44.33 -47 38 02.2          18.0 GVEC089M28

Observer details:
474 Mount John Observatory, Lake Tekapo.  Observers A. C. Gilmore, P. M.
    Kilmartin.  Measurer P. M. Kilmartin.  1.0-m f/7.7 Reflector + CCD.
E23 Arcadia.  Observer A. Hidas.  0.35-m f/1.9 reflector + CCD.
M22 ATLAS South Africa, Sutherland.  Observers L. Denneau, R. Siverd, J.
    Tonry, H. Weiland.  Measurers L. Denneau, N. Erasmus, A. Fitzsimmons, A.
    Lawrence, J. Robinson, R. Siverd, J. Tonry, H. Weiland.  0.5-m Reflector +
    CCD.
M28 Lesedi Telescope-SAAO Observatory, Sutherland.  Observers N. Erasmus, S.
    Potter, C. van Gend, S. Chandra, H. Worters.  Measurers T. Ngwane, N.
    Erasmus.  1.0-m f/8 Reflector + CCD.
M49 IAS Remote Observatory, Hakos.  Observers D. Husar, M. Junius.  Measurer
    D. Husar.  0.25-m f/4.5 reflector + CMO.
X09 Deep Random Survey, Rio Hurtado.  Observers A. Schnabel, D. Ruhela.
    Measurer S. Deen.  0.43-m reflector + CMOS.

Orbital elements:
2024 CO1                                                 Earth MOID = 0.0964 AU
Epoch 2023 Sept. 13.0 TT = JDT 2460200.5                Bell                    
M 322.00200              (2000.0)            P               Q                  
n   0.37650277     Peri.  257.55970     +0.61859676     -0.70413557             
a   1.8994328      Node   145.17125     +0.70676262     +0.69250935             
e   0.6963055      Incl.   37.61819     -0.34325595     +0.15692004             
P   2.62           H   20.17          G   0.15           U   9                  
Residuals in seconds of arc
240205 M22  0.1-  1.1-    240206 X09  0.4+  0.3-    240208 E23  0.0   0.2+
240205 M22  0.1+  0.4+    240207 X09  0.3+  0.2-    240208 E23  0.9+  0.1-
240205 M22  0.5-  0.3-    240207 X09  0.3+  0.4-    240208 E23  1.6+  0.7-
240205 M22  0.1-  0.0     240207 M28  1.1+  1.2+    240208 M49  0.1+  0.0
240205 M22  0.6+  0.5+    240207 M28  0.2+  0.1+    240208 M49  0.4-  0.4+
240205 M22  0.2-  0.2+    240207 M28  0.0   0.0     240208 M28  0.1-  0.6+
240205 M22  0.6+  1.1+    240208 474  0.2-  0.2-    240208 M49  0.1+  0.2+
240205 M22  0.6-  0.4-    240208 474  0.3+  0.1-    240208 M28  0.5-  0.1+
240205 M22  0.8+  0.3+    240208 474  0.4-  0.2+    240208 M28  0.4-  0.3-
240206 X09  0.4+  1.1+    240208 474  0.2-  0.1+

Ephemeris:
2024 CO1                 a,e,i = 1.90, 0.70, 38                  q = 0.5768
Date    TT    R. A. (2000) Decl.     Delta      r    Elong.  Phase     V
2024 01 09    21 23 10.9 -54 15 10   0.5621  0.6583    39.8   107.1    22.0
...
2024 01 24    22 38 36.3 -63 25 04   0.3199  0.8148    49.7   112.9    21.6
...
2024 02 01    00 50 29.1 -67 48 24   0.2015  0.9096    62.4   106.3    20.4
...
2024 02 07    04 17 12.9 -57 19 42   0.1304  0.9822    84.5    88.0    18.8
2024 02 08    04 47 36.9 -52 18 25   0.1224  0.9943    90.2    82.7    18.5
2024 02 09    05 14 14.2 -46 12 42   0.1162  1.0064    96.5    76.9    18.2
...
2024 02 15    06 51 19.9 -02 28 53   0.1281  1.0787   132.8    42.2    17.5
...
2024 02 23    07 43 47.0 +25 42 12   0.2300  1.1738   139.6    33.1    18.7
...
2024 03 09    08 25 52.9 +38 09 14   0.4809  1.3457   128.4    35.3    20.7

M. P. C. Staff               (C) Copyright 2024 MPC           M.P.E.C. 2024-C89





More information about the Iaude mailing list